Weather History for Las Vegas, NM

Change the Weather History Date:

Saturday, March 2, 2013

  Actual Average Record
Temperature  
Mean Temperature 40 °F -  
Max Temperature 57 °F 52 °F 73 °F (2009)
Min Temperature 23 °F 25 °F 0 °F (1965)
Degree Days  
Heating Degree Days 25    
Moisture  
Dew Point 15 °F    
Average Humidity 38    
Maximum Humidity 63    
Minimum Humidity 20    
Precipitation  
Precipitation 0.00 in - - ()
Sea Level Pressure  
Sea Level Pressure 30.23 in    
Wind  
Wind Speed 6 mph (SSW)    
Max Wind Speed 18 mph    
Max Gust Speed 24 mph    
Visibility 10 miles    
Events      
Averages and records for this station are not official NWS values.
T = Trace of Precipitation, MM = Missing Value Source: NWS Daily Summary

Daily Weather History Graph

Daily Weather History Graph

Search for Another Location

Airport:

Trip Planner

Search our weather history database for the weather conditions in past years. The results will help you decide how hot, cold, wet, or windy it might be!

Date:

Astronomy

Mar. 02, 2013 Rise Set
Actual Time 6:28 AM MST 5:56 PM MST
Civil Twilight 6:03 AM MST 6:22 PM MST
Nautical Twilight 5:33 AM MST 6:52 PM MST
Astronomical Twilight 5:04 AM MST 7:21 PM MST
Moon 11:26 PM MST (3/2) 9:10 AM MST (3/2)
Length of Visible Light 12h 19m
Length of Day
11h 28m
Waning Gibbous, 73% of the Moon is Illuminated
Mar 2
Waning Gibbous
Mar 4
Last Quarter
Mar 11
New
Mar 19
First Quarter
Mar 27
Full

Hourly Weather History & Observations

Time (MST) Temp. Windchill Dew Point Humidity Pressure Visibility Wind Dir Wind Speed Gust Speed Precip Events Conditions
12:53 AM 26.1 °F - 10.9 °F 53% 30.33 in 10.0 mi Calm Calm - N/A   Clear
1:53 AM 27.0 °F 21.6 °F 12.0 °F 53% 30.30 in 10.0 mi West 4.6 mph - N/A   Clear
2:53 AM 27.0 °F 20.5 °F 10.9 °F 51% 30.29 in 10.0 mi WSW 5.8 mph - N/A   Clear
3:53 AM 24.1 °F 13.1 °F 12.0 °F 60% 30.30 in 10.0 mi SSW 11.5 mph - N/A   Clear
5:53 AM 25.0 °F 19.3 °F 12.0 °F 58% 30.35 in 10.0 mi SSW 4.6 mph - N/A   Clear
6:53 AM 23.0 °F - 12.0 °F 63% 30.35 in 10.0 mi Calm Calm - N/A   Clear
7:53 AM 33.1 °F - 15.1 °F 48% 30.35 in 10.0 mi Calm Calm - N/A   Clear
8:53 AM 37.9 °F - 15.1 °F 39% 30.34 in 10.0 mi Calm Calm - N/A   Clear
9:53 AM 45.0 °F - 15.1 °F 30% 30.31 in 10.0 mi Calm Calm - N/A   Clear
10:53 AM 46.9 °F - 17.1 °F 30% 30.30 in 10.0 mi South 6.9 mph - N/A   Clear
11:53 AM 50.0 °F - 15.1 °F 25% 30.28 in 10.0 mi South 9.2 mph - N/A   Clear
12:53 PM 54.0 °F - 14.0 °F 21% 30.22 in 10.0 mi South 13.8 mph 19.6 mph N/A   Clear
1:53 PM 55.9 °F - 15.1 °F 20% 30.17 in 10.0 mi South 18.4 mph 24.2 mph N/A   Clear
2:53 PM 55.9 °F - 16.0 °F 21% 30.15 in 10.0 mi South 16.1 mph 21.9 mph N/A   Clear
3:53 PM 57.0 °F - 16.0 °F 20% 30.14 in 10.0 mi South 18.4 mph 24.2 mph N/A   Clear
4:53 PM 55.9 °F - 17.1 °F 22% 30.12 in 10.0 mi South 17.3 mph - N/A   Clear
6:53 PM 44.1 °F 38.6 °F 19.0 °F 37% 30.19 in 10.0 mi SE 10.4 mph - N/A   Clear
7:53 PM 39.9 °F 34.5 °F 17.1 °F 40% 30.16 in 10.0 mi South 8.1 mph - N/A   Clear
8:53 PM 45.0 °F 43.5 °F 18.0 °F 34% 30.12 in 10.0 mi WSW 3.5 mph - N/A   Clear
9:53 PM 39.9 °F 37.8 °F 18.0 °F 41% 30.10 in 10.0 mi WSW 3.5 mph - N/A   Clear
10:53 PM 44.1 °F 40.8 °F 15.1 °F 31% 30.06 in 10.0 mi North 5.8 mph - N/A   Clear
11:53 PM 43.0 °F 40.3 °F 12.9 °F 30% 30.02 in 10.0 mi NE 4.6 mph - N/A   Clear